Location: Pieve di Cento
(44.7167°N, 11.3000°E)
Time: 09:55:11
(UTC+00:00)

Daily predictions for brighter satellites

Satellite Brightness Start Highest point End
(mag) Time Altitude Azimuth Time Altitude Azimuth Time Altitude Azimuth
Cosmos 2221 4.0 15:59:37 10° SW 16:03:38 39° WNW 16:07:43 10° N
USA 308 4.2 16:01:38 10° NW 16:05:11 25° N 16:08:44 10° ENE
CZ-2C R/B 2.8 16:00:30 10° SSE 16:05:19 74° ENE 16:10:05 10° N
SL-16 R/B 3.4 16:01:33 10° N 16:05:51 21° NE 16:10:06 10° E
Cosmos 2082 Rocket 2.3 16:02:03 10° S 16:07:38 63° ESE 16:13:14 10° NNE
Cosmos 540 Rocket 3.5 16:03:31 10° SSW 16:08:37 89° WNW 16:13:46 10° NNE
ARGOS 4.4 16:06:17 10° E 16:09:52 18° ENE 16:13:26 10° NNE
Sich 1 3.1 16:05:46 10° N 16:10:02 55° E 16:14:17 10° SSE
Cosmos 1500 Rocket 4.0 16:05:40 10° NNW 16:10:05 68° W 16:14:24 10° S
FengYun 1-2 T 4.2 16:07:35 10° SSE 16:13:04 64° ENE 16:18:34 10° N
COSMOS 2455 2.9 16:08:14 10° SSW 16:14:15 88° ESE 16:20:20 10° NNE
SMAP 3.2 16:11:21 10° SSE 16:15:50 51° ENE 16:20:22 10° N
NOAA 6 4.1 16:12:19 10° SSE 16:17:19 54° ENE 16:22:19 10° N
Cosmos 1933 3.6 16:16:50 10° SSW 16:20:51 73° W 16:24:53 10° N
Cosmos 1833 Rocket 3.5 16:15:37 10° SW 16:21:04 51° WNW 16:26:35 10° NNE
Cosmos 1805 Rocket 3.6 16:18:12 10° N 16:22:34 84° W 16:26:54 10° S
Cosmos 2278 3.7 16:17:34 10° NNW 16:23:14 61° ENE 16:28:50 10° SE
Cosmos 2333 Rocket 4.1 16:24:23 10° NNE 16:24:37 10° NNE 16:24:52 10° NE
Cosmos 1602 4.0 16:21:34 10° NNW 16:25:26 72° W 16:29:17 10° S
CZ-4B DEB 4.4 16:21:10 10° SE 16:26:28 52° ENE 16:31:47 10° N
USA 305 3.9 16:26:04 10° NW 16:29:49 29° NNE 16:32:51 14° ENE
CZ-2C R/B 3.6 16:26:52 10° NE 16:31:09 26° E 16:35:24 10° SSE
CZ-4B R/B 3.3 16:28:00 10° S 16:31:56 63° WSW 16:35:41 10° NNW
SL-24 R/B - RUBIN 2 4.1 16:28:06 10° NW 16:32:33 63° WSW 16:36:48 10° SSE
Cosmos 1500 3.1 16:31:57 10° N 16:35:42 85° W 16:39:25 10° S
Meteor 1-14 Rocket 4.3 16:30:14 10° N 16:36:05 63° ENE 16:41:58 10° SSE
Cosmos 44 Rocket 3.4 16:32:30 10° NNW 16:37:20 53° NE 16:41:59 10° SE
Meteor 2-16 Rocket 4.4 16:34:14 10° N 16:40:19 62° ENE 16:46:22 10° SSE
COSMOS 2406 4.1 16:35:12 10° SW 16:40:43 47° WNW 16:46:16 10° NNE
Cosmos 1814 Rocket 3.9 16:36:15 10° SSW 16:41:28 83° ESE 16:46:40 10° NNE
Cosmos 921 Rocket 3.5 16:38:50 10° SSE 16:42:42 37° E 16:45:57 14° NE
Cosmos 1570 Rocket 4.0 16:43:05 10° SSW 16:48:20 82° ESE 16:53:35 10° NNE
CZ-4B R/B 3.4 16:47:27 10° SE 16:52:34 46° ENE 16:57:38 10° N
MOS 1-B Rocket 4.3 16:46:32 10° NNE 16:52:35 59° ESE 16:59:33 10° S
CZ-2D R/B 3.1 16:51:06 10° SSE 16:54:53 68° ENE 16:58:42 10° N
Cosmos 2298 Rocket 4.2 16:50:54 10° NNW 16:56:07 51° ENE 17:01:18 10° SE
USA 267 3.3 16:50:26 14° NE 16:56:07 83° NW 17:02:40 10° WSW
MOS 1-B 4.3 16:51:40 10° SSE 16:57:23 69° ENE 17:03:09 10° N
Cosmos 1939 Rocket 3.9 16:53:37 10° S 16:57:36 50° W 17:01:34 10° NNW
ATLAS CENTAUR R/B 3.7 16:49:35 10° WSW 16:58:20 43° NW 17:01:31 16° NNE
Cosmos 1151 Rocket 3.1 16:56:22 10° S 17:00:41 80° W 17:05:05 10° N
Meteor 1-27 Rocket 4.4 16:56:09 10° SSE 17:00:54 31° E 17:04:00 18° NE
USA 306 3.5 16:58:20 10° NW 17:02:19 38° NNE 17:03:51 28° ENE
COSMO-SKYMED 1 2.9 16:59:10 15° NNE 17:02:28 43° E 17:06:36 10° S
Cosmos 1633 Rocket 3.0 16:58:18 10° N 17:02:42 89° WSW 17:07:06 10° S
Cosmos 1782 4.4 16:59:13 10° SW 17:02:54 36° WNW 17:06:38 10° N
APEX 3.2 16:59:40 10° S 17:03:22 48° ESE 17:04:23 34° ENE
Meteor 2-6 Rocket 4.1 16:57:59 10° S 17:03:41 74° E 17:09:15 10° NNE
Cosmos 1666 2.9 17:00:43 10° NNW 17:04:25 71° W 17:08:06 10° S
Landsat 5 4.1 17:05:03 29° ENE 17:05:41 30° E 17:09:10 10° SSE
Cosmos 2360 Rocket 3.1 17:02:11 10° N 17:07:00 27° NE 17:08:17 25° ENE
PAYLOAD B 4.2 17:01:51 10° SSE 17:07:28 87° ENE 17:13:05 10° NNW
ISS -1.3 17:04:55 10° W 17:07:42 24° SW 17:10:30 10° SSE
Cosmos 1900 4.5 17:03:17 10° SW 17:08:07 70° NW 17:11:52 17° NNE
Cosmos 1818 3.6 17:07:25 10° NW 17:12:55 84° WSW 17:18:22 10° SSE
Cosmos 2279 Rocket 4.2 17:10:31 10° SSW 17:16:42 73° W 17:22:55 10° N
CZ-2C R/B 3.2 17:13:52 10° SW 17:17:09 21° S 17:19:13 15° SE
Meteor 2-15 4.3 17:12:56 10° S 17:19:02 76° E 17:25:07 10° NNE
ATLAS 5 CENTAUR R/B 2.1 17:13:34 10° NW 17:19:21 42° NNE 17:19:38 41° NE
Cosmos 2266 Rocket 4.0 17:15:31 10° N 17:21:54 69° E 17:28:18 10° SSE
USA 307 3.2 17:18:53 10° NW 17:22:58 44° NNE 17:23:33 41° NE
CZ-4C R/B 3.6 17:16:47 10° NW 17:24:04 60° WSW 17:32:25 10° SSE
SL-08 RB Rocket 3.9 17:19:40 10° SE 17:24:06 48° ENE 17:28:31 10° N
Lacrosse 5 rocket 1.5 17:22:12 10° NW 17:26:09 67° SW 17:28:57 20° SE
SKYMED 3 4.4 17:23:34 19° NNE 17:26:39 80° ESE 17:30:59 10° S
USA 234 3.2 17:22:40 10° SE 17:29:14 89° SW 17:35:48 10° NW
ATLAS 2AS CENTAUR R/B 4.2 17:24:30 10° NNW 17:29:43 20° NNE 17:31:18 18° NNE
Cosmos 1933 Rocket 3.4 17:25:31 10° N 17:29:50 64° E 17:34:07 10° SSE
Cosmos 2322 Rocket 2.2 17:24:18 10° NNW 17:29:59 60° ENE 17:35:03 13° SE
Tiangong 3.3 17:28:37 10° SSW 17:30:10 16° S 17:30:10 16° S
Cosmos 1328 Rocket 4.3 17:26:27 10° SSW 17:30:48 54° WNW 17:35:11 10° N
Cosmos 2150 Rocket 4.0 17:26:29 10° NNW 17:31:43 87° WSW 17:36:58 10° SSE
Cosmos 1980 Rocket 4.3 17:28:02 10° NW 17:32:47 28° WSW 17:37:30 10° SSW
Cosmos 1470 Rocket 3.9 17:31:25 10° NNW 17:35:52 69° W 17:40:18 10° S
Cosmos 1544 3.0 17:32:20 10° N 17:35:58 80° W 17:39:34 10° S
Cosmos 1867 3.6 17:31:32 10° SSW 17:36:54 63° ESE 17:38:27 44° ENE
NOSS 3-3 (A) 4.1 17:31:47 10° S 17:37:07 47° ESE 17:38:22 41° E
NOSS 3-3 (C) 4.1 17:31:53 10° S 17:37:14 47° ESE 17:38:27 41° E
H-2A R/B 2.8 17:32:43 10° S 17:37:44 53° W 17:42:39 10° NNW
Cosmos 1125 Rocket 3.5 17:32:40 10° NNW 17:37:57 83° WSW 17:43:13 10° SSE
X-37B 1.7 17:35:47 10° WSW 17:37:49 38° SW 17:37:49 38° SW
DEBRIS 3.5 17:36:22 10° SSW 17:38:35 39° SSE 17:38:35 39° SSE
Okean O Rocket 1.6 17:35:02 10° SSE 17:39:29 85° WSW 17:43:59 10° NNW
Meteor 1-10 Rocket 4.3 17:35:05 10° SSW 17:40:50 77° W 17:46:31 10° N
GEOS 3 Rocket 4.4 17:41:55 32° NNE 17:41:55 32° NNE 17:46:01 10° NNW
USA 32 3.9 17:37:34 10° S 17:42:46 72° E 17:46:22 20° NNE
Meteor 1-11 Rocket 3.7 17:37:26 10° N 17:43:07 89° E 17:48:54 10° S
USA 308 3.1 17:41:31 10° NW 17:45:21 56° N 17:45:21 56° N
ARGOS 3.3 17:44:09 10° S 17:49:32 72° WSW 17:54:57 10° NNW
SL-16 R/B 2.3 17:44:53 10° NNW 17:50:33 74° WSW 17:56:12 10° SSE
SKYMED 2 4.1 17:47:47 21° N 17:50:34 58° WNW 17:54:49 10° SSW
Cosmos 2082 Rocket 4.1 17:47:37 10° WSW 17:52:09 24° NW 17:56:44 10° N
deb Chang Zheng 4 4.4 17:50:57 10° S 17:55:07 49° W 17:59:19 10° NNW
Cosmos 1241 Rocket 4.3 17:54:02 10° SSW 18:00:25 80° ESE 18:01:58 54° NE
Feng Yun 1-1 Rocket 4.3 17:58:27 10° SSE 18:04:23 85° WSW 18:10:15 10° NNW
USA 305 3.7 18:05:49 10° NW 18:08:52 46° NW 18:08:52 46° NW
Cosmos 2333 Rocket 3.4 18:05:04 10° NNW 18:08:05 28° N 18:08:05 28° N
CZ-2C R/B 3.6 18:06:50 11° N 18:11:36 42° WNW 18:16:26 10° SW
Aureole 3 Rocket 4.0 18:12:42 10° SSW 18:17:09 61° WNW 18:23:32 10° N
Cosmos 2219 Rocket 3.9 18:13:03 10° NNW 18:15:05 21° N 18:15:05 21° N
USA 267 4.1 18:37:47 37° N 18:38:40 38° NNW 18:44:35 10° W
Cosmos 2360 Rocket 3.1 18:45:48 10° NW 18:50:08 45° WNW 18:50:08 45° WNW
CZ-2C R/B 4.4 18:53:06 10° SW 18:53:23 11° SW 18:53:23 11° SW
Cosmos 2322 Rocket 4.4 19:09:18 10° NW 19:13:32 22° W 19:17:09 12° SW
ATLAS 2AS CENTAUR R/B 4.4 19:15:45 10° NNW 19:18:44 24° NNW 19:18:44 24° NNW
